Bingham Lake, MN

12:57 AM CDT on October 01, 2016 (GMT -0500)
Windom Municipal

Weather History for KMWM - October, 2010

Change the Weather History Date:

Thursday, October 28, 2010

  Actual Average Record
Temperature  
Mean Temperature 34 °F -  
Max Temperature 41 °F 56 °F 73 °F (1948)
Min Temperature 28 °F 31 °F 13 °F (1967)
Degree Days  
Heating Degree Days 30    
Moisture  
Dew Point 27 °F    
Average Humidity 77    
Maximum Humidity 93    
Minimum Humidity 53    
Precipitation  
Precipitation 0.00 in - - ()
Sea Level Pressure  
Sea Level Pressure 30.23 in    
Wind  
Wind Speed 19 mph (WNW)    
Max Wind Speed 28 mph    
Max Gust Speed 36 mph    
Visibility 10 miles    
Events      
Averages and records for this station are not official NWS values.
T = Trace of Precipitation, MM = Missing Value Source: NWS Daily Summary

Daily Weather History Graph

Daily Weather History Graph

Search for Another Location

Airport or City:

Trip Planner

Search our weather history database for the weather conditions in past years. The results will help you decide how hot, cold, wet, or windy it might be!

Date:

Astronomy

Oct. 28, 2010 Rise Set
Actual Time 7:51 AM CDT 6:16 PM CDT
Civil Twilight 7:21 AM CDT 6:46 PM CDT
Nautical Twilight 6:47 AM CDT 7:19 PM CDT
Astronomical Twilight 6:14 AM CDT 7:53 PM CDT
Moon 10:42 PM CDT (10/28) 1:18 PM CDT (10/28)
Length of Visible Light 11h 24m
Length of Day
10h 24m
Waning Gibbous, 70% of the Moon is Illuminated
Oct 28
Waning Gibbous
Oct 30
Last Quarter
Nov 5
New
Nov 13
First Quarter
Nov 21
Full

Hourly Weather History & Observations

Time (CDT) Temp. Windchill Dew Point Humidity Pressure Visibility Wind Dir Wind Speed Gust Speed Precip Events Conditions
12:13 AM 35.6 °F 24.0 °F 30.2 °F 81% 29.98 in 10.0 mi WNW 23.0 mph 33.4 mph N/A   Overcast
12:33 AM 35.6 °F 24.2 °F 30.2 °F 81% 29.99 in 10.0 mi WNW 21.9 mph 35.7 mph N/A   Overcast
12:53 AM 35.6 °F 25.2 °F 30.2 °F 81% 29.99 in 10.0 mi WNW 18.4 mph 28.8 mph N/A   Overcast
1:33 AM 35.6 °F 24.2 °F 30.2 °F 81% 30.01 in 10.0 mi NW 21.9 mph 31.1 mph N/A   Overcast
1:53 AM 35.6 °F 24.2 °F 30.2 °F 81% 30.02 in 10.0 mi WNW 21.9 mph 28.8 mph N/A   Overcast
2:13 AM 35.6 °F 24.5 °F 30.2 °F 81% 30.03 in 10.0 mi WNW 20.7 mph 26.5 mph N/A   Overcast
2:33 AM 35.6 °F 24.5 °F 30.2 °F 81% 30.04 in 10.0 mi NW 20.7 mph 32.2 mph N/A   Overcast
2:53 AM 33.8 °F 22.5 °F 30.2 °F 87% 30.05 in 10.0 mi NW 19.6 mph 31.1 mph N/A   Overcast
3:13 AM 33.8 °F 22.8 °F 30.2 °F 87% 30.06 in 10.0 mi WNW 18.4 mph 24.2 mph N/A   Overcast
3:33 AM 33.8 °F 21.3 °F 30.2 °F 87% 30.07 in 10.0 mi WNW 24.2 mph 32.2 mph N/A   Overcast
3:53 AM 33.8 °F 20.5 °F 30.2 °F 87% 30.09 in 10.0 mi WNW 27.6 mph 33.4 mph N/A   Overcast
4:13 AM 33.8 °F 22.8 °F 28.4 °F 81% 30.10 in 10.0 mi NW 18.4 mph 24.2 mph N/A   Overcast
4:33 AM 33.8 °F 23.2 °F 28.4 °F 81% 30.11 in 10.0 mi NW 17.3 mph 26.5 mph N/A   Overcast
4:53 AM 33.8 °F 21.3 °F 30.2 °F 87% 30.12 in 10.0 mi WNW 24.2 mph 29.9 mph N/A   Overcast
5:13 AM 32.0 °F 19.8 °F 28.4 °F 87% 30.12 in 10.0 mi WNW 20.7 mph 29.9 mph N/A   Overcast
5:33 AM 32.0 °F 19.5 °F 28.4 °F 87% 30.14 in 10.0 mi WNW 21.9 mph 31.1 mph N/A   Overcast
5:53 AM 30.2 °F 18.1 °F 28.4 °F 93% 30.15 in 10.0 mi NW 18.4 mph 27.6 mph N/A   Overcast
6:13 AM 30.2 °F 16.8 °F 28.4 °F 93% 30.16 in 10.0 mi WNW 23.0 mph 28.8 mph N/A   Overcast
6:33 AM 30.2 °F 16.8 °F 26.6 °F 86% 30.17 in 10.0 mi WNW 23.0 mph 31.1 mph N/A   Overcast
6:53 AM 30.2 °F 18.1 °F 26.6 °F 86% 30.18 in 10.0 mi NW 18.4 mph 26.5 mph N/A   Overcast
7:12 AM 30.2 °F 18.9 °F 26.6 °F 86% 30.19 in 10.0 mi WNW 16.1 mph 26.5 mph N/A   Overcast
7:33 AM 30.2 °F 18.1 °F 26.6 °F 86% 30.19 in 10.0 mi WNW 18.4 mph 23.0 mph N/A   Overcast
7:53 AM 30.2 °F 17.4 °F 26.6 °F 86% 30.21 in 10.0 mi WNW 20.7 mph 25.3 mph N/A   Overcast
8:13 AM 30.2 °F 18.5 °F 26.6 °F 86% 30.22 in 10.0 mi WNW 17.3 mph 26.5 mph N/A   Overcast
8:33 AM 30.2 °F 18.9 °F 24.8 °F 80% 30.23 in 10.0 mi WNW 16.1 mph 29.9 mph N/A   Overcast
8:53 AM 30.2 °F 17.8 °F 24.8 °F 80% 30.24 in 10.0 mi WNW 19.6 mph - N/A   Overcast
9:13 AM 30.2 °F 18.1 °F 24.8 °F 80% 30.25 in 10.0 mi NW 18.4 mph 26.5 mph N/A   Overcast
9:33 AM 30.2 °F 18.1 °F 24.8 °F 80% 30.26 in 10.0 mi NW 18.4 mph 27.6 mph N/A   Overcast
9:53 AM 30.2 °F 18.1 °F 24.8 °F 80% 30.27 in 10.0 mi NW 18.4 mph 28.8 mph N/A   Overcast
10:13 AM 30.2 °F 17.8 °F 24.8 °F 80% 30.28 in 10.0 mi NW 19.6 mph 24.2 mph N/A   Overcast
10:33 AM 30.2 °F 17.8 °F 24.8 °F 80% 30.29 in 10.0 mi NW 19.6 mph 24.2 mph N/A   Overcast
10:53 AM 30.2 °F 17.8 °F 24.8 °F 80% 30.30 in 10.0 mi WNW 19.6 mph 25.3 mph N/A   Overcast
11:13 AM 32.0 °F 19.2 °F 24.8 °F 75% 30.31 in 10.0 mi WNW 23.0 mph 28.8 mph N/A   Overcast
11:33 AM 33.8 °F 22.8 °F 26.6 °F 75% 30.30 in 10.0 mi WNW 18.4 mph 25.3 mph N/A   Mostly Cloudy
11:53 AM 33.8 °F 23.5 °F 26.6 °F 75% 30.31 in 10.0 mi WNW 16.1 mph 23.0 mph N/A   Mostly Cloudy
12:13 PM 33.8 °F 24.3 °F 26.6 °F 75% 30.31 in 10.0 mi WNW 13.8 mph 24.2 mph N/A   Mostly Cloudy
12:33 PM 35.6 °F 25.5 °F 26.6 °F 70% 30.30 in 10.0 mi WNW 17.3 mph 21.9 mph N/A   Scattered Clouds
12:53 PM 35.6 °F 25.2 °F 28.4 °F 75% 30.30 in 10.0 mi WNW 18.4 mph 24.2 mph N/A   Clear
1:13 PM 35.6 °F 25.5 °F 28.4 °F 75% 30.31 in 10.0 mi WNW 17.3 mph 21.9 mph N/A   Clear
1:53 PM 39.2 °F 29.8 °F 28.4 °F 65% 30.31 in 10.0 mi West 18.4 mph - N/A   Clear
2:13 PM 39.2 °F 29.6 °F 28.4 °F 65% 30.32 in 10.0 mi WNW 19.6 mph 26.5 mph N/A   Clear
2:33 PM 39.2 °F 30.2 °F 28.4 °F 65% 30.31 in 10.0 mi West 17.3 mph 26.5 mph N/A   Clear
2:53 PM 39.2 °F 29.6 °F 26.6 °F 61% 30.31 in 10.0 mi West 19.6 mph 25.3 mph N/A   Clear
3:13 PM 41.0 °F 32.2 °F 26.6 °F 57% 30.31 in 10.0 mi WNW 18.4 mph 25.3 mph N/A   Clear
3:33 PM 41.0 °F 32.5 °F 26.6 °F 57% 30.32 in 10.0 mi WNW 17.3 mph 24.2 mph N/A   Clear
3:53 PM 41.0 °F 32.2 °F 26.6 °F 57% 30.32 in 10.0 mi West 18.4 mph 21.9 mph N/A   Clear
4:13 PM 41.0 °F 32.2 °F 26.6 °F 57% 30.32 in 10.0 mi WNW 18.4 mph - N/A   Clear
4:33 PM 41.0 °F 32.5 °F 24.8 °F 53% 30.32 in 10.0 mi WNW 17.3 mph 24.2 mph N/A   Clear
4:53 PM 41.0 °F 32.8 °F 26.6 °F 57% 30.33 in 10.0 mi WNW 16.1 mph - N/A   Clear
5:13 PM 41.0 °F 34.7 °F 24.8 °F 53% 30.33 in 10.0 mi NW 10.4 mph - N/A   Clear
5:33 PM 39.2 °F 32.5 °F 26.6 °F 61% 30.33 in 10.0 mi WNW 10.4 mph - N/A   Clear
5:53 PM 39.2 °F 33.0 °F 26.6 °F 61% 30.33 in 10.0 mi WNW 9.2 mph - N/A   Clear
6:13 PM 37.4 °F 32.1 °F 24.8 °F 60% 30.33 in 10.0 mi NW 6.9 mph - N/A   Clear
6:33 PM 35.6 °F 29.2 °F 26.6 °F 70% 30.34 in 10.0 mi WNW 8.1 mph - N/A   Clear
6:53 PM 33.8 °F 27.0 °F 26.6 °F 75% 30.34 in 10.0 mi WNW 8.1 mph - N/A   Clear
7:13 PM 33.8 °F 27.7 °F 26.6 °F 75% 30.34 in 10.0 mi WNW 6.9 mph - N/A   Clear
7:33 PM 32.0 °F 24.8 °F 26.6 °F 80% 30.35 in 10.0 mi WNW 8.1 mph - N/A   Clear
8:13 PM 30.2 °F 23.4 °F 26.6 °F 86% 30.36 in 10.0 mi West 6.9 mph - N/A   Clear
8:33 PM 30.2 °F 23.4 °F 26.6 °F 86% 30.36 in 10.0 mi WNW 6.9 mph - N/A   Clear
8:53 PM 28.4 °F 24.6 °F 24.8 °F 86% 30.36 in 10.0 mi West 3.5 mph - N/A   Clear
9:13 PM 28.4 °F 24.6 °F 24.8 °F 86% 30.35 in 10.0 mi West 3.5 mph - N/A   Clear
9:33 PM 30.2 °F - 24.8 °F 80% 30.36 in 10.0 mi Calm Calm - N/A   Clear
9:53 PM 28.4 °F 23.3 °F 24.8 °F 86% 30.36 in 10.0 mi West 4.6 mph - N/A   Clear
10:13 PM 28.4 °F 24.6 °F 24.8 °F 86% 30.36 in 10.0 mi West 3.5 mph - N/A   Clear
10:33 PM 28.4 °F 23.3 °F 24.8 °F 86% 30.36 in 10.0 mi West 4.6 mph - N/A   Clear
10:53 PM 28.4 °F 23.3 °F 24.8 °F 86% 30.36 in 10.0 mi West 4.6 mph - N/A   Clear
11:13 PM 28.4 °F 23.3 °F 24.8 °F 86% 30.36 in 10.0 mi WSW 4.6 mph - N/A   Clear
11:33 PM 28.4 °F 23.3 °F 24.8 °F 86% 30.36 in 10.0 mi WSW 4.6 mph - N/A   Clear
11:53 PM 28.4 °F - 24.8 °F 86% 30.34 in 10.0 mi Calm Calm - N/A   Clear